Regional Weather Roundup
Issued by NWS Charleston, SC

Current Version | Previous Version | Text Only | Print | Product List | Glossary Off
Versions: 1 2 3 4 5 6 7 8 9 10 11 12 13 14 15 16 17 18 19 20 21 22 23 24 25 26 27 28 29 30 31 32 33 34 35 36 37 38 39 40 41 42 43 44 45 46 47 48 49 50
000 ASUS42 KCHS 071227 RWRCHS REGIONAL WEATHER ROUNDUP NATIONAL WEATHER SERVICE CHARLESTON SC 700 AM EST SUN FEB 07 2016 NOTE: "FAIR" INDICATES FEW OR NO CLOUDS BELOW 12,000 FEET WITH NO SIGNIFICANT WEATHER AND/OR OBSTRUCTIONS TO VISIBILITY. NOT ALL STATIONS ARE QUALITY CONTROLLED BY THE NATIONAL WEATHER SERVICE. USE DATA WITH CAUTION...ESPECIALLY DEWPOINT OBSERVATIONS. NOTICE: OBSERVATIONS FOR THE SAVANNAH-HILTON HEAD INTERNATIONAL AIRPORT /KSAV/ HAVE BEEN TEMPORARILY REMOVED DUE TO AN ERRONEOUS TEMPERATURE SENSOR. THE OBSERVATION WILL BE REINTRODUCED ONCE REPAIRS ARE COMPLETE. SCZ027-030-031-034>040-042>050-071300- ...SOUTHEAST SOUTH CAROLINA... CITY SKY/WX TMP DP RH WIND PRES REMARKS N CHARLESTON LGT RAIN 40 37 89 N14G23 29.95F WCI 32 6HR MIN TEMP: 39; 6HR MAX TEMP: 40; 6HR PCP: 0.35; WATERFRONT PRK N/A 41 40 96 N16 29.77F MOUNT PLEASANT CLOUDY 39 37 93 N10G18 29.94R WCI 32 JOHNS ISLAND RAIN 41 39 93 N14 29.93S PINOPOLIS N/A N/A N/A N/A NE22 29.88F MONCKS CORNER LGT RAIN 37 34 87 N15G21 29.97S WCI 28 SUMMERVILLE RAIN 39 39 100 N7 30.00R WCI 34 BEAUFORT MCAS LGT RAIN 40 37 89 N12 29.99S WCI 33 6HR MIN TEMP: 40; 6HR MAX TEMP: 41; 6HR PCP: 0.30; BEAUFORT ARPT LGT RAIN 41 39 93 N12 29.98S HILTON HEAD IS LGT RAIN 39 39 100 N14G21 29.99R WCI 31 WALTERBORO LGT RAIN 39 37 93 N8 30.01R WCI 34 ALLENDALE CLOUDY 39 34 81 VRB7G14 30.03S WCI 34 ...SOUTHERN MIDLANDS AND PEE DEE... CITY SKY/WX TMP DP RH WIND PRES REMARKS GEORGETOWN NOT AVBL KINGSTREE NOT AVBL ORANGEBURG CLOUDY 39 32 76 N9 30.02F WCI 33 6HR MIN TEMP: 38; 6HR MAX TEMP: 41; 6HR PCP: 0.25; BARNWELL CLOUDY 41 32 70 CALM 30.05F AIKEN CLOUDY 39 23 52 N6 30.08F WCI 35 MANNING FAIR 36 34 93 N13G20 29.99F WCI 27 COLUMBIA CLOUDY 43 23 45 NW6 30.06S 6HR MIN TEMP: 43; 6HR MAX TEMP: 46; 6HR PCP: TRACE; SUMTER CLOUDY 39 29 68 N14G22 30.00F WCI 31 6HR MIN TEMP: 38; 6HR MAX TEMP: 41; 6HR PCP: 0.17; FLORENCE LGT RAIN 37 34 89 NE15G23 30.01F WCI 28 6HR MIN TEMP: 37; 6HR MAX TEMP: 39; 6HR PCP: 0.11; MYRTLE BEACH RAIN 39 32 75 NE14 29.99S FOG WCI 31 N MYRTLE BEACH RAIN 38 36 92 N13G21 29.96R WCI 30 6HR MIN TEMP: 38; 6HR MAX TEMP: 40; 6HR PCP: 0.57; $$ GAZ063-065-086>088-099>101-113>116-118-119-134>141-150-071300- ...SOUTHEAST GEORGIA... CITY SKY/WX TMP DP RH WIND PRES REMARKS SAVANNAH ARPT LGT RAIN 39 36 89 NW12 30.03R WCI 32 6HR MIN TEMP: 39; 6HR MAX TEMP: 41; 6HR PCP: 0.50; HUNTER AAF LGT RAIN 39 39 100 NW13 29.99S WCI 32 6HR MIN TEMP: 39; 6HR MAX TEMP: 41; 6HR PCP: 0.61; FORT STEWART CLOUDY 40 37 90 N10 30.01S WCI 33 6HR MIN TEMP: 39; 6HR MAX TEMP: 41; 6HR PCP: 0.57; STATESBORO CLOUDY 44 31 60 N8 30.05S SYLVANIA CLOUDY 41 36 83 N8 30.05S CLAXTON CLOUDY 42 35 78 NW7 30.05F ...CSRA...CENTRAL AND FAR SOUTHEAST GEORGIA... CITY SKY/WX TMP DP RH WIND PRES REMARKS THOMSON MOCLDY 36 30 80 NW5 30.14S WCI 32 AUGUSTA-BUSH CLOUDY 41 26 55 N12 30.08R 6HR MIN TEMP: 40; 6HR MAX TEMP: 43; AUGUSTA-DANIEL CLOUDY 41 23 48 NW7 30.08R SWAINSBORO CLOUDY 39 30 70 NW6 30.08R WCI 35 VIDALIA CLOUDY 39 32 75 N7 30.07S WCI 34 EASTMAN FAIR 36 29 76 CALM 30.13R HAZLEHURST FAIR 40 34 79 NW6 30.07R WCI 36 ALMA MOCLDY 40 34 79 NW7 30.06R WCI 35 6HR MIN TEMP: 40; 6HR MAX TEMP: 41; 6HR PCP: TRACE; WAYCROSS CLOUDY 43 40 91 NW8 30.07R JESUP DRIZZLE 43 41 93 NW6 30.05R BAXLEY MOCLDY 41 37 87 N6 30.07R BRUNSWICK LGT RAIN 37 37 100 NW7 30.02S WCI 32 SAINT SIMONS RAIN 40 39 97 NW16G22 30.00R WCI 31 6HR MIN TEMP: 40; 6HR MAX TEMP: 42; 6HR PCP: 0.56; $$ SCZ027-028-034-036>038-045-046-048>050-GAZ119-141-071300- ...LAKE AND SUPPLEMENTAL COASTAL OBSERVATIONS... STATION/POSITION TIME TEMP WIND PRES WAVE SWELL AIR SEA DIR/SP/G HT/PER HT/PER/DIR (UTC) (F) (DEG/KT/KT) (MB) (FT/S) (FT/S/D) WINYAH BAY 1100 39 10/ 11 1013.0S LAKE MURRAY 1100 41 340/ 2/ 6 1017.6S ACE BASIN NERRS 1100 38 360/ 6 1014.0F FORT PULASKI 1200 40 54 310/ 15/ 19 1015.9R SAPELO ISLAND 1200 41 330/ 13 1016.0S $$ ANZ835-935-AMZ111-154-330-350-352-354-370-450-454-472-071300- ...C-MAN AND BUOY OBSERVATIONS... STATION/POSITION TIME TEMP WIND PRES WAVE SWELL AIR SEA DIR/SP/G HT/PER HT/PER/DIR (UTC) (F) (DEG/KT/KT) (MB) (FT/S) (FT/S/D) BUOY 41004 1150 50 66 10/ 33/ 41 1009.0F 13/ 8 3/15 BUOY 41008 1150 44 56 350/ 23/ 27 1014.6R 7/ 7 3/ 80/ 9 FOLLY BEACH CMAN 1200 41 360/ 16/ 19 1013.8S CAPERS NEARSHORE 1108 43 20/ 23/ 31 1013.6F FRIPP NEARSHORE 1100 43 360/ 21/ 27 1013.9F STATION/POSITION TIME TEMP WIND PRES WAVE SWELL AIR SEA DIR/SP/G HT/PER HT/PER/DIR (UTC) (F) (DEG/KT/KT) (MB) (FT/S) (FT/S/D) 5E ST. MARYS GA 1121 56 N/A 7/ 7 2/110/12 FRYING PAN BUOY 1200 52 69 20/ 31/ 41 1010.9R BUOY 41025 1150 54 71 20/ 33/ 43 1012.7F 10/ 7 CAPE LOOKOUT NC NOT AVBL BUOY 41002 1150 64 69 130/ 25/ 29 N/A 9/10 5/ 90/10 BUOY 41010 1120 67 74 1007.0R ST AUGUSTINE FL 1200 43 57 330/ 18/ 21 1015.5F $$

USA.gov is the U.S. government's official web portal to all federal, state and local government web resources and services.